Location: Newark
(43.0000°N, 1.6781°W)
Time: 21:27:00
(UTC+00:00)

Delta 2 Rocket - Visible Passes

Search period start: 30 May 2024 00:00
Search period end: 09 June 2024 00:00
Orbit: 398 x 678 km, 35.6° (Epoch: 30 May)

Date Brightness Start Highest point End Pass type
(mag) Time Alt. Az. Time Alt. Az. Time Alt. Az.
06 Jun 5.8 03:19:28 10° S 03:21:03 12° SSE 03:22:41 10° SE visible
07 Jun 5.6 03:08:15 10° S 03:10:24 14° SSE 03:12:43 10° ESE visible
08 Jun 5.3 02:58:06 13° S 02:59:43 16° SSE 03:02:29 10° ESE visible
